QB50P2

导读

QB50P2是比利时(BE)参与QB50国际合作项目的立方星,于2014年6月19日发射升空。作为QB50星座计划的一部分,该卫星主要承担低地球轨道低热层大气的原位探测任务,助力开展长期科学观测与再入物理研究。它依托低成本微小卫星技术,推动了全球科研团队在中上层大气研究领域的数据共享,也为国际航天合作提供了低成本开放共享的创新实践模式。

基本信息
目录编号:
40032
目录名称:
QB50P2
国际标识:
2014-033Y
轨道中心:
EARTH
卫星名称:
QB50P2
卫星全名:
--
卫星状态:
在轨 (已飞行4461 天)
发射日期:
2014-06-19 UTC
国别 :
比利时 (BE)
星等 :
--
轨道信息
数据来源 国际轨道数据
星历时间: 2026-09-05T13:57:40+0800
10小时前
查看轨道信息
半长轴: 6895.824km
偏心率: 0.0005553
轨道倾角: 98.081°
近地点辐角 260.419°
升交点赤经 250.193°
平近点角 99.641°
近地点: 513.857km
远地点: 521.517km
周期: 94.981分钟
每日圈数: 15.160849
详细信息
使用方式:
暂无
2D轨道图
3D轨道图
轨道高度分析图
轨道倾角分析图
轨道综合分析图
查看轨道综合分析图
交会数据列表
事件ID 空间交会对象 最接近时刻(TCA) 交会距离 交会风险概率(CRP) 交会风险指数(CRI) 操作
CDM_260907-002204-003206-900623
QB50P2 (40032)
2026-09-07T
00:22:34+0000
2.599 km
极远距离
1.451363E-6 低风险 0.38